Regional Weather Roundup
Issued by NWS

Home | Current Version | Previous Version | Graphics & Text | Print | Product List | Glossary On
Versions: 1 2 3 4 5 6 7 8 9 10 11 12 13 14 15 16 17 18 19 20 21 22 23 24 25 26 27 28 29 30 31 32 33 34 35 36 37 38 39 40 41 42 43 44 45 46 47 48 49 50
000
ASUS43 KLMK 120402
RWRKY
KENTUCKY REGIONAL WEATHER ROUNDUP
NATIONAL WEATHER SERVICE LOUISVILLE KY
1100 PM EST THU FEB 11 2016

NOTE "FAIR" INDICATES FEW OR NO CLOUDS BELOW 12,000 FEET
WITH NO SIGNIFICANT WEATHER AND/OR OBSTRUCTIONS TO VISIBILITY.

KYZ001>023-026-027-061>063-070>075-120500-
WESTERN AND SOUTH CENTRAL KENTUCKY

CITY           SKY/WX    TMP DP  RH WIND       PRES   REMARKS
PADUCAH        CLOUDY    32  18  56 NE8       30.27F WCI  25
HENDERSON      CLOUDY    28  14  54 CALM      30.29S
OWENSBORO      CLOUDY    28  15  58 NE3       30.29F
HOPKINSVILLE   CLOUDY    31  18  58 NE7       30.24F WCI  24
BOWLING GREEN  CLOUDY    31  16  54 CALM      30.28F
GLASGOW        NOT AVBL
$$

KYZ024-025-028>034-038-045-046-053-120500-
NORTH CENTRAL KENTUCKY

CITY           SKY/WX    TMP DP  RH WIND       PRES   REMARKS
LOUISVILLE/SDF CLOUDY    28   7  41 E5        30.29S WCI  23
LOUISVILLE/LOU CLOUDY    27   8  44 E6        30.29F WCI  20
FORT KNOX      CLOUDY    27  12  53 E6        30.25S WCI  20
$$

KYZ035>037-039>044-047>052-055>060-089>105-120500-
NORTHEAST KENTUCKY

CITY           SKY/WX    TMP DP  RH WIND       PRES   REMARKS
LEXINGTON      MOCLDY    24  13  62 E5        30.26F WCI  18
COVINGTON      MOCLDY    20   9  62 E3        30.28F
FRANKFORT      CLOUDY    25  10  53 E5        30.27F WCI  19
$$

KYZ054-064>069-076>088-106>120-120500-
SOUTHEAST KENTUCKY

CITY           SKY/WX    TMP DP  RH WIND       PRES   REMARKS
JACKSON        MOCLDY    23   9  55 CALM      30.25F
LONDON         CLOUDY    26   9  48 E5        30.25F WCI  20
SOMERSET       NOT AVBL
MIDDLESBORO    NOT AVBL
MONTICELLO     CLOUDY    28  16  60 W6        30.27F WCI  22
$$




USA.gov is the U.S. government's official web portal to all federal, state and local government web resources and services.